1281744027891,17.1602
1281744087891,17.0978
1281744147891,17.1010
1281744207891,17.1051
1281744267891,17.1836
1281744327891,17.1205
1281744387891,17.1250
1281744447891,17.1447
1281744507891,17.1628
1281744567891,17.1103
1281744627891,17.1028
1281744687891,17.1217
1281744747891,17.0647
1281744807891,17.0961
1281744867891,17.1616
1281744927891,17.1862
1281744987891,17.1756
1281745047891,17.1547
1281745107891,17.1772
1281745167891,17.1639
1281745227891,17.2008
1281745287891,17.1609
1281745347891,17.1061
1281745407891,17.1855
1281745467891,17.1881
1281745527891,17.1516
1281745587891,17.1343
1281745647891,17.1368
1281745707891,17.1610
1281745767891,17.2172
1281745827891,17.1636
1281745887891,17.2272
1281745947891,17.1137
1281746007891,17.1579
1281746067891,17.1705
1281746127891,17.1989
1281746187891,17.2051
1281746247891,17.1360
1281746307891,17.1564
1281746367891,17.1997
1281746427891,17.1553
1281746487891,17.1979
1281746547891,17.1688
1281746607891,17.1749
1281746667891,17.1854
1281746727891,17.2369
1281746787891,17.1599
1281746847891,17.1853
1281746907891,17.1804
1281746967891,17.1775
1281747027891,17.1411
1281747087891,17.1528
1281747147891,17.1673
1281747207891,17.1787
1281747267891,17.1471
1281747327891,17.1679
1281747387891,17.1436
1281747447891,17.2123
1281747507891,17.1754
1281747567891,17.1743
1281747627900,17.1733
1281747687900,17.1568
1281747747900,17.1663
1281747807900,17.1545
1281747867900,17.1802
1281747927900,17.1990
1281747987900,17.1944
1281748047900,17.1419
1281748107900,17.1256
1281748167900,17.1514
1281748227900,17.2013
1281748287900,17.1684
1281748347900,17.1671
1281748407900,17.1607
1281748467900,17.0970
1281748527900,17.1409
1281748587900,17.1282
1281748647900,17.1915
1281748707900,17.1255
1281748767900,17.1048
1281748827900,17.0963
1281748887900,17.1322
1281748947900,17.1197
1281749007900,17.1287
1281749067900,17.1030
1281749127900,17.1406
1281749187900,17.1305
1281749247900,17.1441
1281749307900,17.1414
1281749367900,17.1266
1281749427900,17.1328
1281749487900,17.1370
1281749547900,17.0992
1281749607900,17.1302
1281749667900,17.0717
1281749727900,17.0813
1281749787900,17.0684
1281749847900,17.1235
1281749907900,17.0772
1281749967900,17.0708
1281750027900,17.1080
1281750087900,17.0961
1281750147900,17.0883
1281750207900,17.1172
1281750267900,17.0612
1281750327900,17.1012
1281750387900,17.1008
1281750447900,17.1157
1281750507900,17.0704
1281750567900,17.1027
1281750627900,17.0824
1281750687900,17.0780
1281750747900,17.0911
1281750807900,17.1208
1281750867900,17.0841
1281750927900,17.1209
1281750987900,17.0805
1281751047900,17.0898
1281751107900,17.0850
1281751167900,17.0586
1281751227909,17.0356
1281751287909,17.0825
1281751347909,17.1281
1281751407909,17.1020
1281751467909,17.1325
1281751527909,17.1045
1281751587909,17.1324
1281751647909,17.0847
1281751707909,17.0400
1281751767909,17.0550
1281751827909,17.0828
1281751887909,17.0567
1281751947909,17.0986
1281752007909,17.0864
1281752067909,17.0482
1281752127909,17.0739
1281752187909,17.0881
1281752247909,17.0222
1281752307909,17.0625
1281752367909,17.1098
1281752427909,17.0703
1281752487909,17.0896
1281752547909,17.1305
1281752607909,17.0921
1281752667909,17.0937
1281752727909,17.0790
1281752787909,17.1097
1281752847909,17.0907
1281752907909,17.0656
1281752967909,17.1143
1281753027909,17.1086
1281753087909,17.1432
1281753147909,17.1006
1281753207909,17.1195
1281753267909,17.0603
1281753327909,17.1202
1281753387909,17.0524
1281753447909,17.0697
1281753507909,17.0836
1281753567909,17.0772
1281753627909,17.1500
1281753687909,17.1328
1281753747909,17.1105
1281753807909,17.1205
1281753867909,17.1190
1281753927909,17.1410
1281753987909,17.0938
1281754047909,17.0398
1281754107909,17.1932
1281754167909,17.0865
1281754227909,17.0509
1281754287909,17.1052
1281754347909,17.1422
1281754407909,17.1344
1281754467909,17.1282
1281754527909,17.0702
1281754587909,17.1153
1281754647909,17.1224
1281754707909,17.1010
1281754767909,17.1184
1281754827918,17.0654
1281754887918,17.0363
1281754947918,17.1478
1281755007918,17.0644
1281755067918,17.0208
1281755127918,17.0873
1281755187918,17.0783
1281755247918,17.0576
1281755307918,17.0592
1281755367918,17.1057
1281755427918,17.1009
1281755487918,17.1070
1281755547918,17.0402
1281755607919,17.0996
1281755667919,17.0641
1281755727919,17.1190
1281755787919,17.0982
1281755847918,17.0783
1281755907918,17.1178
1281755967918,17.0455
1281756027918,17.0921
1281756087918,17.0890
1281756147918,17.0395
1281756207918,17.1327
1281756267918,17.1129
1281756327918,17.0822
1281756387918,17.1307
1281756447918,17.1117
1281756507918,17.0939
1281756567918,17.1213
1281756627918,17.1302
1281756687918,17.0605
1281756747918,17.0596
1281756807918,17.1251
1281756867918,17.1297
1281756927919,17.1795
1281756987919,17.1825
1281757047919,17.1714
1281757107919,17.1736
1281757167919,17.1510
1281757227918,17.1301
1281757287918,17.1078
1281757347918,17.1574
1281757407918,17.1365
1281757467918,17.1642
1281757527918,17.0490
1281757587918,17.0916
1281757647918,17.0991
1281757707918,17.1087
1281757767918,17.1007
1281757827918,17.1285
1281757887918,17.1013
1281757947918,17.1113
1281758007918,17.0973
1281758067918,17.1390
1281758127918,17.0807
1281758187918,17.0926
1281758247918,17.0720
1281758307919,17.1026
1281758367919,17.2027
1281758427927,17.1495
1281758487927,17.1447
1281758547927,17.1219
1281758607927,17.1323
1281758667927,17.1135
1281758727927,17.0964
1281758787927,17.1034
1281758847927,17.1348
1281758907927,17.1625
1281758967927,17.1655
1281759027927,17.1288
1281759087927,17.1373
1281759147927,17.0540
1281759207927,17.0966
1281759267927,17.0212
1281759327927,17.0805
1281759387927,17.0920
1281759447927,17.0977
1281759507927,17.0820
1281759567927,17.0821
1281759627927,17.1373
1281759687927,17.1181
1281759747927,17.1353
1281759807927,17.0871
1281759867927,17.1203
1281759927927,17.0886
1281759987927,17.1227
1281760047927,17.1660
1281760107927,17.0855
1281760167927,17.1617
1281760227927,17.1434
1281760287927,17.1224
1281760347927,17.1488
1281760407927,17.0833
1281760467927,17.0480
1281760527927,17.1290
1281760587927,17.0587
1281760647927,17.0985
1281760707927,17.1207
1281760767927,17.0970
1281760827927,17.1335
1281760887927,17.0903
1281760947927,17.0543
1281761007927,17.0962
1281761067927,17.1155
1281761127927,17.0444
1281761187927,17.0904
1281761247927,17.0859
1281761307927,17.0493
1281761367927,17.0780
1281761427927,17.0447
1281761487927,17.0913
1281761547927,17.0980
1281761607927,17.1132
1281761667927,17.0768
1281761727927,17.0770
1281761787927,17.1029
1281761847927,17.1376
1281761907927,17.0570
1281761967927,17.0477
1281762027936,17.0373
1281762087936,17.0593
1281762147936,17.0611
1281762207936,17.0469
1281762267936,17.0513
1281762327936,17.0765
1281762387936,17.0316
1281762447936,17.0322
1281762507936,17.0951
1281762567936,17.0613
1281762627936,17.0489
1281762687936,17.0030
1281762747936,17.0488
1281762807936,17.0430
1281762867936,17.1143
1281762927936,17.0884
1281762987936,17.0466
1281763047936,17.0268
1281763107936,17.0327
1281763167936,17.1028
1281763227936,17.0909
1281763287936,17.0571
1281763347936,17.0474
1281763407936,17.0461
1281763467936,17.0327
1281763527936,17.0436
1281763587936,17.0736
1281763647936,17.0938
1281763707936,17.0903
1281763767936,17.0597
1281763827936,17.0623
1281763887936,17.0855
1281763947936,17.0783
1281764007936,17.0348
1281764067936,17.0905
1281764127936,16.9992
1281764187936,17.0085
1281764247936,17.0615
1281764307936,16.9489
1281764367936,17.0309
1281764427936,17.0447
1281764487936,17.0332
1281764547936,17.0426
1281764607936,17.0317
1281764667936,17.0614
1281764727936,17.0262
1281764787936,17.1019
1281764847936,17.0785
1281764907936,17.0698
1281764967936,17.0843
1281765027936,17.0968
1281765087936,17.0342
1281765147936,16.9775
1281765207936,17.0882
1281765267936,17.0986
1281765327936,17.1029
1281765387936,17.1565
1281765447936,17.0765
1281765507936,17.0975
1281765567936,17.0898
1281765627945,17.0558
1281765687945,17.0605
1281765747945,17.0244
1281765807945,17.0551
1281765867945,17.0539
1281765927945,17.0614
1281765987945,17.0582
1281766047945,17.0165
1281766107945,17.1056
1281766167945,17.1171
1281766227945,17.0910
1281766287945,17.0866
1281766347945,17.0949
1281766407945,17.0944
1281766467945,17.0956
1281766527945,17.1220
1281766587945,17.0768
1281766647945,17.1062
1281766707945,17.0606
1281766767945,17.0619
1281766827945,17.0237
1281766887945,17.0883
1281766947945,17.0665
1281767007945,17.0310
1281767067945,17.0117
1281767127945,17.0195
1281767187945,17.0792
1281767247945,17.1241
1281767307945,17.0794
1281767367945,17.1174
1281767427945,17.0538
1281767487945,17.1016
1281767547945,17.1055
1281767607945,17.0538
1281767667945,17.0863
1281767727945,17.0678
1281767787945,17.0176
1281767847945,17.0872
1281767907945,17.0402
1281767967945,17.0403
1281768027945,17.0715
1281768087945,17.1385
1281768147945,17.0943
1281768207945,17.0153
1281768267945,17.0223
1281768327945,17.0209
1281768387945,16.9853
1281768447945,17.0621
1281768507945,17.0473
1281768567945,17.0376
1281768627945,17.0082
1281768687945,17.0156
1281768747945,17.0435
1281768807945,17.0221
1281768867945,16.9936
1281768927945,17.0185
1281768987945,17.0162
1281769047945,17.0311
1281769107945,16.9867
1281769167945,17.0154
1281769227954,17.0744
1281769287954,17.0347
1281769347954,17.0095
1281769407954,17.0073
1281769467954,16.9762
1281769527954,17.0316
1281769587954,16.9825
1281769647954,17.0819
1281769707954,17.0584
1281769767954,16.9921
1281769827954,17.0597
1281769887954,17.0933
1281769947954,17.0577
1281770007954,17.0987
1281770067954,17.0572
1281770127954,17.0196
1281770187954,17.1163
1281770247954,17.1422
1281770307954,17.0675
1281770367954,17.1029
1281770427954,17.0747
1281770487954,17.0980
1281770547954,17.1432
1281770607954,17.0778
1281770667954,17.1034
1281770727954,17.0268
1281770787954,17.0798
1281770847954,17.1576
1281770907954,17.1040
1281770967954,17.0583
1281771027954,17.0818
1281771087954,17.0705
1281771147954,17.0927
1281771207954,17.0805
1281771267954,17.0395
1281771327954,17.0840
1281771387954,17.1287
1281771447954,17.0769
1281771507954,17.0651
1281771567954,17.0755
1281771627954,17.1143
1281771687954,17.1380
1281771747954,17.1632
1281771807954,17.1646
1281771867954,17.1524
1281771927954,17.1448
1281771987954,17.1464
1281772047954,17.1202
1281772107954,17.1692
1281772167954,17.2080
1281772227954,17.2250
1281772287954,17.2072
1281772347954,17.1455
1281772407954,17.1628
1281772467954,17.2073
1281772527954,17.1515
1281772587954,17.1712
1281772647954,17.1311
1281772707954,17.1288
1281772767954,17.0941
1281772827962,17.0726
1281772887962,17.1209
1281772947962,17.1854
1281773007962,17.2033
1281773067962,17.1593
1281773127962,17.1609
1281773187962,17.1612
1281773247962,17.1489
1281773307962,17.1995
1281773367962,17.2284
1281773427962,17.1472
1281773487962,17.1840
1281773547962,17.2021
1281773607962,17.1477
1281773667962,17.2235
1281773727962,17.1801
1281773787962,17.1285
1281773847962,17.1412
1281773907962,17.2046
1281773967962,17.1544
1281774027962,17.1232
1281774087962,17.1351
1281774147962,17.1858
1281774207962,17.1489
1281774267962,17.1365
1281774327962,17.0418
1281774387962,17.1068
1281774447962,17.1135
1281774507962,17.1065
1281774567962,17.1328
1281774627962,17.0515
1281774687962,17.0834
1281774747962,17.1020
1281774807962,17.0732
1281774867962,17.0458
1281774927962,17.0657
1281774987962,17.0894
1281775047962,17.0998
1281775107962,17.0597
1281775167962,17.0935
1281775227962,17.0193
1281775287962,17.0870
1281775347962,17.1031
1281775407962,17.1052
1281775467962,17.1190
1281775527962,17.0682
1281775587962,17.0831
1281775647962,17.0628
1281775707962,17.0191
1281775767962,17.1094
1281775827962,17.0871
1281775887962,17.0414
1281775947962,17.0952
1281776007962,17.0486
1281776067962,17.0940
1281776127962,17.0733
1281776187962,17.1558
1281776247962,17.1392
1281776307962,17.0745
1281776367962,17.0519
1281776427971,17.0706
1281776487971,17.0754
1281776547971,17.0189
1281776607971,17.0709
1281776667971,17.0803
1281776727971,17.0883
1281776787971,17.0892
1281776847971,17.0435
1281776907971,17.0898
1281776967971,17.0366
1281777027971,17.0475
1281777087971,17.0764
1281777147971,17.1085
1281777207971,17.1293
1281777267971,17.0464
1281777327971,17.0945
1281777387971,17.1183
1281777447971,17.1064
1281777507971,17.1161
1281777567971,17.1478
1281777627971,17.1127
1281777687971,17.1375
1281777747971,17.2218
1281777807971,17.1445
1281777867971,17.1916
1281777927971,17.2352
1281777987971,17.2118
1281778047971,17.2289
1281778107971,17.2361
1281778167971,17.3121
1281778227971,17.3394
1281778287971,17.4160
1281778347971,17.4383
1281778407971,17.4347
1281778467971,17.4923
1281778527971,17.5680
1281778587971,17.5802
1281778647971,17.6241
1281778707971,17.6749
1281778767971,17.7491
1281778827971,17.8459
1281778887971,17.8395
1281778947971,17.8688
1281779007971,17.9577
1281779067971,17.9844
1281779127971,17.8554
1281779187971,17.8886
1281779247971,17.8269
1281779307971,17.8339
1281779367971,17.7963
1281779427971,17.7781
1281779487971,17.7521
1281779547971,17.7450
1281779607971,17.7085
1281779667971,17.6375
1281779727971,17.6634
1281779787971,17.6493
1281779847971,17.6593
1281779907971,17.7451
1281779967971,17.6832
1281780027980,17.7395
1281780087980,17.7100
1281780147980,17.6767
1281780207980,17.6487
1281780267980,17.6537
1281780327980,17.5709
1281780387980,17.5541
1281780447980,17.5634
1281780507980,17.5728
1281780567980,17.6247
1281780627980,17.5789
1281780687980,17.5982
1281780747980,17.5654
1281780807980,17.6276
1281780867980,17.5972
1281780927980,17.5551
1281780987980,17.5430
1281781047980,17.5980
1281781107980,17.5265
1281781167980,17.6034
1281781227980,17.5971
1281781287980,17.5922
1281781347980,17.5068
1281781407980,17.5366
1281781467980,17.4963
1281781527980,17.5313
1281781587980,17.4887
1281781647980,17.5116
1281781707980,17.4720
1281781767980,17.4793
1281781827980,17.4607
1281781887980,17.4550
1281781947980,17.4837
1281782007980,17.4703
1281782067980,17.4555
1281782127980,17.5091
1281782187980,17.4604
1281782247980,17.4958
1281782307980,17.4458
1281782367980,17.5047
1281782427980,17.4738
1281782487980,17.4451
1281782547980,17.4342
1281782607980,17.4263
1281782667980,17.4468
1281782727980,17.4478
1281782787980,17.3923
1281782847980,17.4050
1281782907980,17.4606
1281782967980,17.4466
1281783027980,17.4303
1281783087980,17.5168
1281783147980,17.4998
1281783207980,17.4791
1281783267980,17.4555
1281783327980,17.4671
1281783387980,17.4923
1281783447980,17.4861
1281783507980,17.4670
1281783567980,17.4203
1281783627988,17.3560
1281783687988,17.3660
1281784227988,17.3896
1281784287988,17.3298
1281784347988,17.3574
1281784407988,17.3566
1281784467988,17.3772
1281784527988,17.4173
1281784587988,17.3116
1281784647988,17.3345
1281784707988,17.3423
1281784767988,17.2933
1281784827988,17.2949
1281784887988,17.2793
1281784947988,17.3391
1281785007988,17.2564
1281785067988,17.3024
1281785127988,17.2486
1281785187988,17.2836
1281785247988,17.2921
1281785307988,17.2431
1281785367988,17.2299
1281785427988,17.2257
1281785487988,17.2215
1281785547988,17.2197
1281785607988,17.2244
1281785667988,17.1795
1281785727988,17.2184
1281785787988,17.2683
1281785847988,17.2076
1281785907988,17.2548
1281785967988,17.2173
1281786027988,17.2468
1281786087988,17.2023
1281786147988,17.1901
1281786207988,17.2656
1281786267988,17.2071
1281786327988,17.2409
1281786387988,17.1764
1281786447988,17.1931
1281786507988,17.1730
1281786567988,17.1451
1281786627988,17.1671
1281786687988,17.1554
1281786747988,17.2124
1281786807988,17.1515
1281786867988,17.2315
1281786927988,17.1600
1281786987988,17.1670
1281787047988,17.1939
1281787107988,17.1545
1281787167988,17.1949
1281787227997,17.1779
1281787287997,17.2027
1281787347997,17.1616
1281787407997,17.1704
1281787467997,17.1428
1281787527997,17.1869
1281787587997,17.1492
1281787647997,17.1467
1281787707997,17.1970
1281787767997,17.1413
1281787827997,17.1276
1281787887997,17.1656
1281787947997,17.1178
1281788007997,17.1658
1281788067997,17.1170
1281788127997,17.1862
1281788187997,17.0947
1281788247997,17.1338
1281788307997,17.2213
1281788367997,17.1522
1281788427997,17.1112
1281788487997,17.1143
1281788547997,17.2077
1281788607997,17.1674
1281788667997,17.1499
1281788727997,17.0917
1281788787997,17.1435
1281788847997,17.1591
1281788907997,17.0671
1281788967997,17.1405
1281789027997,17.1615
1281789087997,17.1864
1281789147997,17.1491
1281789207997,17.1528
1281789267997,17.1570
1281789327997,17.1902
1281789387997,17.1682
1281789447997,17.0589
1281789507997,17.1480
1281789567997,17.1376
1281789627997,17.1088
1281789687997,17.1505
1281789747997,17.1318
1281789807997,17.1405
1281789867997,17.1794
1281789927997,17.1027
1281789987997,17.1127
1281790047997,17.1148
1281790107997,17.1532
1281790167997,17.2119
1281790227997,17.1377
1281790287997,17.0974
1281790347997,17.2045
1281790407997,17.1325
1281790467997,17.1745
1281790527997,17.1365
1281790587997,17.2206
1281790647997,17.1877
1281790707997,17.1364
1281790767997,17.1284
1281790828006,17.1589
1281790888006,17.1353
1281790948006,17.1739
1281791008006,17.1662
1281791068006,17.0673
1281791128006,17.1670
1281791188006,17.1229
1281791248006,17.0952
1281791308006,17.0828
1281791368006,17.1552
1281791428006,17.1352
1281791488006,17.0742
1281791548006,17.1742
1281791608006,17.1365
1281791668006,17.1400
1281791728006,17.1632
1281791788006,17.1318
1281791848006,17.1948
1281791908006,17.1517
1281791968006,17.1740
1281792028006,17.1109
1281792088006,17.1832
1281792148006,17.1913
1281792208006,17.1159
1281792268006,17.1212
1281792328006,17.1647
1281792388006,17.1877
1281792448006,17.2517
1281792508006,17.2040
1281792568006,17.1771
1281792628006,17.2047
1281792688006,17.2352
1281792748006,17.1264
1281792808006,17.1748
1281792868006,17.1936
1281792928006,17.1343
1281792988006,17.1737
1281793048006,17.1059
1281793108006,17.1538
1281793168006,17.1823
1281793228006,17.1971
1281793288006,17.1536
1281793348006,17.1785
1281793408006,17.1676
1281793468006,17.1720
1281793528006,17.1037
1281793588006,17.1851
1281793648006,17.2109
1281793708006,17.2223
1281793768006,17.2069
1281793828006,17.1580
1281793888006,17.2217
1281793948006,17.1818
1281794008006,17.1942
1281794068006,17.1808
1281794128006,17.2402
1281794188006,17.2033
1281794248006,17.2109
1281794308006,17.1508
1281794368006,17.2197
1281794428015,17.2178
1281794488015,17.1932
1281794548015,17.2370
1281794608015,17.1951
1281794668015,17.2285
1281794728015,17.1470
1281794788015,17.1671
1281794848015,17.1832
1281794908015,17.1534
1281794968015,17.1698
1281795028015,17.1539
1281795088015,17.1714
1281795148015,17.1912
1281795208015,17.1552
1281795268015,17.1902
1281795328015,17.1481
1281795388015,17.1395
1281795448015,17.2110
1281795508015,17.1639
1281795568015,17.1847
1281795628015,17.2002
1281795688015,17.2505
1281795748015,17.1716
1281795808015,17.2091
1281795868015,17.2228
1281795928015,17.2093
1281795988015,17.1952
1281796048015,17.2563
1281796108015,17.2289
1281796168015,17.1984
1281796228015,17.2014
1281796288015,17.1830
1281796348015,17.0926
1281796408015,17.1181
1281796468015,17.1331
1281796528015,17.1262
1281796588015,17.0681
1281796648015,17.1743
1281796708015,17.1270
1281796768015,17.1972
1281796828015,17.0956
1281796888015,17.1256
1281796948015,17.1274
1281797008015,17.1015
1281797068015,17.1154
1281797128015,17.1567
1281797188015,17.1179
1281797248015,17.1495
1281797308015,17.0659
1281797368015,17.0724
1281797428015,17.1621
1281797488015,17.1087
1281797548015,17.0754
1281797608015,17.1031
1281797668015,17.0621
1281797728015,17.1164
1281797788015,17.0914
1281797848015,17.1377
1281797908015,17.1310
1281797968015,17.0935
1281798028025,17.0819
1281798088025,17.0686
1281798148025,17.0699
1281798208025,17.0721
1281798268025,17.0632
1281798328025,17.0709
1281798388025,17.1289
1281798448025,17.0705
1281798508025,17.1071
1281798568025,17.1035
1281798628025,17.1125
1281798688025,17.0498
1281798748025,17.1119
1281798808025,17.0922
1281798868025,17.1110
1281798928025,17.1137
1281798988025,17.1044
1281799048025,17.1154
1281799108025,17.1644
1281799168025,17.1779
1281799228025,17.1048
1281799288025,17.0596
1281799348025,17.1670
1281799408025,17.1080
1281799468025,17.1705
1281799528025,17.1254
1281799588025,17.1357
1281799648025,17.0793
1281799708025,17.1267
1281799768025,17.1029
1281799828025,17.1065
1281799888025,17.1878
1281799948025,17.1542
1281800008025,17.1270
1281800068025,17.1251
1281800128025,17.0996
1281800188025,17.0928
1281800248025,17.0967
1281800308025,17.0375
1281800368025,17.0961
1281800428025,17.1331
1281800488025,17.1592
1281800548025,17.1244
1281800608025,17.1588
1281800668025,17.1892
1281800728025,17.0946
1281800788025,17.1329
1281800848025,17.1108
1281800908025,17.1028
1281800968025,17.1703
1281801028025,17.1680
1281801088025,17.1131
1281801148025,17.0769
1281801208025,17.0672
1281801268025,17.1542
1281801328025,17.1371
1281801388025,17.1109
1281801448025,17.1477
1281801508025,17.1744
1281801568025,17.1374
1281801628035,17.1290
1281801688035,17.1285
1281801748035,17.1351
1281801808035,17.0916
1281801868035,17.1181
1281801928035,17.1605
1281801988035,17.1069
1281802048035,17.1098
1281802108035,17.1234
1281802168035,17.1243
1281802228035,17.1380
1281802288035,17.1120
1281802348035,17.0961
1281802408035,17.0897
1281802468035,17.1374
1281802528035,17.1437
1281802588035,17.0811
1281802648035,17.1374
1281802708035,17.1345
1281802768035,17.1679
1281802828035,17.1349
1281802888035,17.1016
1281802948035,17.1087
1281803008035,17.1334
1281803068035,17.1399
1281803128035,17.1321
1281803188035,17.0853
1281803248035,17.1389
1281803308035,17.1424
1281803368035,17.0808
1281803428035,17.1613
1281803488035,17.1094
1281803548035,17.1543
1281803608035,17.1371
1281803668035,17.1506
1281803728035,17.1505
1281803788035,17.1375
1281803848035,17.1001
1281803908035,17.1358
1281803968035,17.1396
1281804028035,17.1082
1281804088035,17.1460
1281804148035,17.1400
1281804208035,17.1587
1281804268035,17.1312
1281804328035,17.0768
1281804388035,17.1290
1281804448035,17.1084
1281804508035,17.1229
1281804568035,17.0645
1281804628035,17.0338
1281804688035,17.0837
1281804748035,17.0428
1281804808035,17.0335
1281804868035,17.0773
1281804928035,17.0440
1281804988035,17.0745
1281805048035,17.1114
1281805108035,17.0021
1281805168035,17.1113
1281805228045,17.0756
1281805288045,17.1282
1281805348045,17.1441
1281805408045,17.0747
1281805468045,17.0699
1281805528045,17.0361
1281805588045,17.1086
1281805648045,17.0471
1281805708045,17.0951
1281805768045,17.0634
1281805828045,17.0672
1281805888045,17.1362
1281805948045,17.2053
1281806008045,17.2329
1281806068045,17.2767
1281806128045,17.3618
1281806188045,17.3206
1281806248045,17.3270
1281806308045,17.3043
1281806368045,17.2858
1281806428045,17.2922
1281806488045,17.2160
1281806548045,17.2343
1281806608045,17.1260
1281806668045,17.1772
1281806728045,17.0735
1281806788045,17.1012
1281806848045,17.0977
1281806908045,17.1588
1281806968045,17.1598
1281807028045,17.1208
1281807088045,17.1499
1281807148045,17.0645
1281807208045,17.1638
1281807268045,17.0754
1281807328045,17.1189
1281807388045,17.1692
1281807448045,17.0969
1281807508045,17.0679
1281807568045,17.0150
1281807628045,17.0118
1281807688045,17.0614
1281807748045,17.0379
1281807808045,17.0286
1281807868045,17.0383
1281807928045,17.0757
1281807988045,17.0627
1281808048045,17.0602
1281808108045,17.0692
1281808168045,17.0503
1281808228045,17.0413
1281808288045,17.0812
1281808348045,17.0276
1281808408045,17.1115
1281808468045,17.1020
1281808528045,17.0408
1281808588045,17.0952
1281808648045,17.0750
1281808708045,17.0342
1281808768045,17.0649
1281808828055,17.0327
1281808888055,17.0626
1281808948055,17.0869
1281809008056,17.0575
1281809068055,17.0309
1281809128055,17.0427
1281809188055,17.1251
1281809248055,17.2418
1281809308055,17.1682
1281809368055,17.1655
1281809428055,17.2128
1281809488055,17.1213
1281809548055,17.1377
1281809608055,17.0880
1281809668055,17.0977
1281809728055,17.0657
1281809788055,17.1166
1281809848055,17.0941